[[{"header":{"parameterUnit":"m.s-1","parameterCategory":1,"la1":30.2991,"la2":30.254,"lo1":-89.0895,"lo2":-89.0444,"dy":0.0017,"dx":0.0017,"nx":28,"ny":28,"refTime":"2024-07-10T03:00:00:Z","depth":0,"parameterNumber":2,"parameterNumberName":"U-component_of_WINDS"},"data":[0,0,0,0,0,0,0,0,0,0,0,0,0,0,0,0,0,0,0,0,0,0,0,0,0,0,0,0,0,0,0,0,0,0,0,0,0,0,0,0,0,0,0,0,0,0,0,0,0,0,0,0,0,0,0,0,0,0,2.5701,2.5702,0,2.5795,2.5796,2.5797,2.5765,2.5763,2.576,2.5759,2.5854,2.5859,2.5863,0,0,0,0,0,0,0,0,0,0,0,0,0,2.549,2.5494,2.57,2.5702,2.5703,2.5795,2.5796,2.5797,2.5765,2.5762,2.576,2.5758,2.5853,2.5858,2.5864,0,0,0,0,0,0,0,0,0,0,0,0,0,2.5582,2.5495,2.57,2.5698,2.5699,2.5794,2.5796,2.5798,2.5766,2.5762,2.5759,2.5756,2.5851,2.5858,2.5864,2.5968,0,0,2.5885,2.5888,0,0,0,0,0,0,0,0,2.5577,2.559,2.5697,2.5698,2.5699,2.5765,2.5757,2.5855,2.5766,2.574,2.5758,2.5755,2.5827,2.5836,2.586,2.5973,2.5977,2.5885,2.589,2.5892,2.5894,0,0,0,0,0,0,0,2.5571,2.5586,2.5738,2.5699,2.57,2.5691,2.5701,2.5775,2.58,2.5742,2.574,2.5752,2.5827,2.5854,2.5862,2.5978,2.5885,2.5891,2.5895,2.5898,2.6178,2.6181,0,0,0,0,0,0,2.5564,2.5581,2.5735,2.5741,2.5629,2.5697,2.5708,2.5747,2.5799,2.5804,2.5754,2.575,2.5844,2.5854,2.5865,2.5988,2.5892,2.5899,2.5903,2.6174,2.6178,2.6182,0,0,0,0,0,0,2.556,2.5578,2.5731,2.566,2.5679,2.5704,2.5748,2.575,2.5777,2.5808,2.5812,2.5777,2.5842,2.5856,2.5942,2.5991,2.5902,2.5908,2.617,2.6175,2.618,2.6236,0,0,0,0,0,0,2.5554,2.5577,2.5617,2.5661,2.5683,2.5807,2.5751,2.5754,2.5789,2.5784,2.5831,2.5835,2.584,2.5932,2.5949,2.5999,2.5913,2.6166,2.6173,2.6179,2.623,2.6243,2.6254,0,0,0,0,0,2.5546,2.563,2.5619,2.5638,2.5734,2.581,2.5822,2.5827,2.5793,2.5833,2.5853,2.5834,2.5983,2.5941,2.596,2.6013,2.6163,2.6171,2.6178,2.6225,2.624,2.6253,0,0,0,0,0,0,2.5591,2.5636,2.5625,2.5725,2.5764,2.5805,2.5856,2.5843,2.5892,2.5886,2.5889,2.5899,2.5988,2.6009,2.5961,2.6114,2.6068,2.608,2.6097,2.6112,2.6124,2.6116,2.5919,0,0,0,0,0,2.5612,2.5671,2.5707,2.5792,2.5812,2.583,2.5864,2.5863,2.5904,2.592,2.5946,2.5986,2.6041,2.6078,2.6131,2.6233,2.6242,2.6278,2.629,2.6299,2.6309,2.6362,2.6379,2.6207,2.6207,2.6207,0,0,2.5658,2.5689,2.5726,2.5801,2.5832,2.5891,2.5845,2.591,2.5954,2.593,2.6013,2.6033,2.6077,2.6171,2.6214,2.6192,2.6358,2.6309,2.6316,2.6321,2.6372,2.6388,2.6403,2.6212,2.6211,2.621,0,0,2.577,2.58,2.5873,2.5904,2.595,2.5962,2.5979,2.6022,2.6034,2.6117,2.61,2.6151,2.6248,2.6279,2.6308,2.643,2.6414,2.6447,2.6508,2.6559,2.6573,2.6585,2.6627,2.6642,2.6457,2.6457,2.6457,0,2.582,2.591,2.5912,2.5979,2.6012,2.5992,2.6065,2.6095,2.6156,2.6179,2.6153,2.6272,2.63,2.64,2.643,2.6455,2.6473,2.6442,2.6571,2.6583,2.6594,2.6634,2.665,2.6461,2.646,2.646,2.646,0,2.5968,2.603,2.6083,2.6142,2.6181,2.6251,2.6263,2.6302,2.6297,2.6311,2.6395,2.6428,2.6487,2.651,2.6508,2.661,2.6594,2.657,2.6523,2.6614,2.6651,2.6667,2.6466,2.6465,2.6464,2.6463,0,0,2.6112,2.617,2.6189,2.6215,2.6263,2.6311,2.6379,2.6436,2.6468,2.651,2.6566,2.6647,2.6624,2.6657,2.6657,2.6702,2.6794,2.6672,2.6673,2.6692,2.6906,2.6923,2.6941,2.6784,2.6787,2.6789,2.6902,0,2.6227,2.6346,2.6349,2.6458,2.6514,2.6496,2.6554,2.659,2.6604,2.6653,2.6669,2.6726,2.6692,2.6711,2.6756,2.6774,2.6837,2.6766,2.6835,2.6837,2.6823,2.6961,2.698,2.7085,2.6917,2.6919,2.6921,0,2.6377,2.6423,2.6537,2.6575,2.6599,2.6652,2.6703,2.6751,2.679,2.6797,2.6832,2.6825,2.6893,2.6844,2.6936,2.6888,2.6916,2.6929,2.6933,2.6939,2.6884,2.6969,2.7119,2.7134,2.6945,2.6943,2.6941,0,2.6468,2.6559,2.6639,2.6661,2.6708,2.6745,2.6767,2.6803,2.6836,2.688,2.6901,2.6954,2.6982,2.7022,2.7028,2.6993,2.712,2.7073,2.7127,2.7126,2.7154,2.7152,2.7309,2.7174,2.7174,2.7174,2.7173,0,2.6596,2.6666,2.668,2.6729,2.6806,2.6809,2.6885,2.6903,2.6935,2.6986,2.6973,2.7021,2.7027,2.7077,2.7082,2.7156,2.717,2.7176,2.7177,2.7177,2.7176,2.7195,2.7187,2.7178,2.7177,2.7176,2.7176,0,2.6711,2.6723,2.6808,2.6845,2.6856,2.6911,2.6942,2.6988,2.7,2.7065,2.708,2.71,2.7157,2.7167,2.7235,2.7238,2.7326,2.732,2.7313,2.7312,2.7365,2.7359,2.7538,2.7561,2.7413,2.7415,2.7416,0,2.6791,2.6844,2.6886,2.692,2.6942,2.6996,2.703,2.7034,2.7069,2.7116,2.7156,2.7211,2.7256,2.7348,2.7367,2.7418,2.7412,2.7472,2.742,2.7418,2.7411,2.7407,2.7412,2.7481,2.7483,2.7484,2.7485,0,2.6931,2.6934,2.6983,2.7033,2.7073,2.7113,2.7151,2.7179,2.7188,2.7228,2.7286,2.732,2.7388,2.7443,2.7493,2.7514,2.7501,2.7501,2.7516,2.7516,2.7509,2.7512,2.7339,2.7497,2.7496,2.7495,2.7494,2.7494,2.703,2.7076,2.7112,2.7166,2.7195,2.723,2.7274,2.7291,2.734,2.7395,2.7394,2.7457,2.7493,2.7559,2.7583,2.7631,2.7612,2.7635,2.764,2.7645,2.7649,2.7502,2.7641,2.7641,2.764,2.764,2.764,0,2.7168,2.719,2.724,2.7292,2.7335,2.7318,2.7359,2.7395,2.745,2.7484,2.7528,2.7593,2.7646,2.7669,2.772,2.7754,2.7749,2.7768,2.7765,2.7769,2.7664,2.7645,2.7771,2.7771,2.7771,2.7771,2.7771,2.777,2.7245,2.732,2.7327,2.7416,2.7437,2.7499,2.7523,2.7554,2.7581,2.7655,2.7698,2.7713,2.7742,2.7795,2.7842,2.7847,2.7866,2.7886,2.7889,2.779,2.7777,2.7764,2.7746,2.7891,2.7891,2.7989,2.799,2.7991]},{"header":{"parameterUnit":"m.s-1","parameterCategory":1,"la1":30.2991,"la2":30.254,"lo1":-89.0895,"lo2":-89.0444,"dy":0.0017,"dx":0.0017,"nx":28,"ny":28,"refTime":"2024-07-10T03:00:00:Z","depth":0,"parameterNumber":3,"parameterNumberName":"V-component_of_WINDS"},"data":[0,0,0,0,0,0,0,0,0,0,0,0,0,0,0,0,0,0,0,0,0,0,0,0,0,0,0,0,0,0,0,0,0,0,0,0,0,0,0,0,0,0,0,0,0,0,0,0,0,0,0,0,0,0,0,0,0,0,0.3532,0.3532,0,0.3575,0.3576,0.3576,0.3563,0.3562,0.3561,0.356,0.3606,0.3608,0.361,0,0,0,0,0,0,0,0,0,0,0,0,0,0.3436,0.3438,0.3532,0.3532,0.3533,0.3575,0.3576,0.3577,0.3563,0.3562,0.3561,0.356,0.3605,0.3608,0.361,0,0,0,0,0,0,0,0,0,0,0,0,0,0.3478,0.3438,0.3531,0.3531,0.3531,0.3575,0.3576,0.3577,0.3563,0.3562,0.356,0.3559,0.3604,0.3607,0.361,0.3658,0,0,0.362,0.3621,0,0,0,0,0,0,0,0,0.3476,0.3482,0.3531,0.3531,0.3532,0.3562,0.3559,0.3604,0.3564,0.3551,0.356,0.3558,0.3593,0.3597,0.3608,0.366,0.3662,0.362,0.3622,0.3624,0.3624,0,0,0,0,0,0,0,0.3473,0.348,0.3549,0.3531,0.3532,0.3528,0.3533,0.3567,0.3579,0.3552,0.3551,0.3557,0.3593,0.3605,0.3609,0.3662,0.362,0.3623,0.3625,0.3626,0.3754,0.3755,0,0,0,0,0,0,0.347,0.3478,0.3548,0.355,0.35,0.3531,0.3536,0.3554,0.3579,0.3581,0.3558,0.3556,0.36,0.3605,0.361,0.3667,0.3624,0.3626,0.3628,0.3752,0.3754,0.3756,0,0,0,0,0,0,0.3468,0.3476,0.3546,0.3514,0.3522,0.3534,0.3554,0.3555,0.3568,0.3583,0.3585,0.3568,0.3599,0.3606,0.3646,0.3668,0.3628,0.3631,0.375,0.3753,0.3755,0.378,0,0,0,0,0,0,0.3465,0.3475,0.3494,0.3514,0.3524,0.3581,0.3556,0.3557,0.3573,0.3571,0.3593,0.3596,0.3599,0.3641,0.3649,0.3672,0.3633,0.3749,0.3751,0.3754,0.3777,0.3783,0.3788,0,0,0,0,0,0.3462,0.35,0.3495,0.3503,0.3547,0.3582,0.3588,0.359,0.3575,0.3593,0.3603,0.3595,0.3664,0.3645,0.3654,0.3678,0.3747,0.3751,0.3754,0.3775,0.3782,0.3788,0,0,0,0,0,0,0.3482,0.3502,0.3497,0.3543,0.3561,0.358,0.3603,0.3597,0.362,0.3618,0.362,0.3625,0.3665,0.3675,0.3654,0.3724,0.3703,0.3709,0.3716,0.3723,0.3728,0.3725,0.3636,0,0,0,0,0,0.3492,0.3519,0.3535,0.3573,0.3582,0.3591,0.3606,0.3607,0.3625,0.3633,0.3645,0.3664,0.3689,0.3707,0.3731,0.3778,0.3782,0.3799,0.3804,0.3808,0.3813,0.3837,0.3845,0.3767,0.3767,0.3767,0,0,0.3513,0.3527,0.3544,0.3578,0.3592,0.3619,0.3598,0.3628,0.3648,0.3638,0.3676,0.3685,0.3706,0.3749,0.3769,0.3759,0.3835,0.3812,0.3816,0.3818,0.3842,0.3849,0.3856,0.3769,0.3769,0.3768,0,0,0.3565,0.3578,0.3612,0.3625,0.3646,0.3651,0.3659,0.3679,0.3684,0.3722,0.3715,0.3738,0.3783,0.3798,0.3811,0.3866,0.3859,0.3874,0.3901,0.3925,0.3931,0.3937,0.3956,0.3963,0.3878,0.3878,0.3878,0,0.3589,0.3629,0.363,0.366,0.3675,0.3665,0.3699,0.3712,0.374,0.3751,0.3739,0.3793,0.3807,0.3853,0.3866,0.3877,0.3886,0.3872,0.393,0.3936,0.3941,0.3959,0.3967,0.388,0.388,0.388,0.388,0,0.3657,0.3685,0.3709,0.3736,0.3753,0.3785,0.379,0.3807,0.3805,0.3811,0.3849,0.3865,0.3892,0.3902,0.3901,0.3948,0.3941,0.393,0.3909,0.395,0.3967,0.3975,0.3882,0.3882,0.3881,0.3881,0,0,0.3725,0.375,0.3759,0.377,0.3791,0.3813,0.3843,0.3869,0.3884,0.3903,0.3928,0.3965,0.3954,0.3969,0.3969,0.399,0.4032,0.3976,0.3977,0.3986,0.4084,0.4092,0.4101,0.4027,0.4029,0.403,0.4082,0,0.3779,0.3833,0.3833,0.3883,0.3908,0.3899,0.3925,0.3941,0.3947,0.3969,0.3976,0.4002,0.3986,0.3995,0.4015,0.4023,0.4052,0.4019,0.4051,0.4052,0.4047,0.411,0.412,0.4168,0.4089,0.409,0.4091,0,0.385,0.387,0.3922,0.3938,0.3948,0.3972,0.3995,0.4017,0.4033,0.4036,0.4052,0.4048,0.4079,0.4056,0.4098,0.4076,0.4088,0.4094,0.4096,0.41,0.4075,0.4116,0.4184,0.4191,0.4102,0.4101,0.41,0,0.3894,0.3934,0.397,0.398,0.4,0.4016,0.4025,0.4041,0.4056,0.4075,0.4085,0.4108,0.4121,0.4139,0.4141,0.4124,0.4183,0.4161,0.4186,0.4186,0.42,0.4199,0.4272,0.4207,0.4207,0.4207,0.4207,0,0.3954,0.3987,0.399,0.4013,0.4048,0.4047,0.4082,0.409,0.4103,0.4126,0.4119,0.4141,0.4142,0.4164,0.4166,0.42,0.4206,0.4209,0.4209,0.421,0.421,0.4219,0.4216,0.4209,0.4209,0.4208,0.4208,0,0.4011,0.4015,0.4053,0.4068,0.4072,0.4097,0.411,0.4131,0.4135,0.4164,0.4171,0.4178,0.4204,0.4207,0.4238,0.4239,0.428,0.4276,0.4274,0.4274,0.4299,0.4297,0.4381,0.4392,0.432,0.432,0.4321,0,0.405,0.4074,0.4091,0.4105,0.4115,0.4139,0.4154,0.4153,0.4169,0.4189,0.4207,0.4232,0.4252,0.4293,0.4301,0.4323,0.4321,0.4348,0.4324,0.4324,0.4321,0.432,0.4322,0.4353,0.4354,0.4355,0.4355,0,0.4118,0.4118,0.414,0.4161,0.4179,0.4196,0.4212,0.4224,0.4226,0.4244,0.4269,0.4285,0.4315,0.4339,0.4361,0.437,0.4363,0.4363,0.437,0.4371,0.4369,0.437,0.4287,0.4361,0.4361,0.436,0.436,0.436,0.4167,0.4188,0.4202,0.4226,0.4238,0.4252,0.4272,0.4279,0.43,0.4324,0.4322,0.435,0.4365,0.4394,0.4404,0.4426,0.4417,0.4427,0.443,0.4432,0.4435,0.4365,0.443,0.4429,0.4429,0.4429,0.4429,0,0.4235,0.4243,0.4265,0.4287,0.4305,0.4296,0.4313,0.4329,0.4354,0.4368,0.4387,0.4416,0.4439,0.4447,0.447,0.4485,0.4483,0.4491,0.4491,0.4493,0.4442,0.4433,0.4493,0.4493,0.4493,0.4493,0.4493,0.4493,0.4273,0.4307,0.4308,0.4348,0.4356,0.4383,0.4393,0.4407,0.4418,0.445,0.4469,0.4474,0.4486,0.4509,0.4529,0.4531,0.454,0.455,0.455,0.4503,0.4496,0.449,0.4482,0.4551,0.4552,0.4599,0.46,0.46]}]]